Terminal Aerodrome Forecast
Issued by NWS Shreveport, LA

Home | Current Version | Previous Version | Text Only | Print | Product List | Glossary On
Versions: 1 2 3 4 5 6 7 8 9 10 11 12 13 14 15 16 17 18 19 20
000
FTUS44 KSHV 270528
TAFGGG
TAF
KGGG 270528Z 2706/2806 32006KT P6SM SKC
     FM271500 29007KT P6SM FEW250
     FM271600 32012G18KT P6SM SCT250
     FM272300 36003KT P6SM SKC=

USA.gov is the U.S. government's official web portal to all federal, state and local government web resources and services.